This demonstration page uses our WeatherBlox Daily Observations layout. Learn more.

Left ArrowRight Arrow

44.89941, -97.11507

Hourly Observations for July 20, 2016

Temp ( °F °C ) Dew Point ( °F °C ) Humidity (%) Winds ( mph kmh ) Pressure ( in mb ) Visibility ( mi km ) Precip ( " mm )
12:53 am 00:53 Mostly Cloudy 75 23.9 72 22.2 90 90 SSE 10 17 29.96 1014 10 16 0.00 0.00
1:12 am 01:12 Cloudy 76 24.4 72 22.2 88 88 SE 9 15 29.91 1013 10 16 0.00 0.00
1:53 am 01:53 Cloudy 76 24.4 73 22.8 91 91 SSE 13 20 29.95 1014 10 16 0.00 0.00
2:53 am 02:53 Cloudy 76 24.4 73 22.8 91 91 SSE 13 20 29.94 1014 9 14 0.00 0.00
3:53 am 03:53 Cloudy 76 24.4 72 22.2 88 88 SSE 8 13 29.93 1013 9 14 0.00 0.00
4:53 am 04:53 Cloudy 75 23.9 72 22.2 90 90 SSE 12 19 29.90 1012 9 14 0.00 0.00
5:53 am 05:53 Cloudy 74 23.3 72 22.2 94 94 SSE 13 20 29.89 1012 8 13 0.00 0.00
6:29 am 06:29 Partly Cloudy with Mist and Fog 74 23.3 72 22.2 94 94 SSE 7 11 29.88 1012 6 10 0.00 0.00
6:39 am 06:39 Mostly Cloudy with Mist and Fog 74 23.3 71 21.7 91 91 SSE 8 13 29.88 1012 6 10 0.00 0.00
6:53 am 06:53 Partly Cloudy with Mist and Fog 74 23.3 71 21.7 91 91 SSE 8 13 29.90 1012 6 10 0.00 0.00
7:53 am 07:53 Mostly Sunny 75 23.9 72 22.2 90 90 S 12 19 29.89 1012 9 14 0.00 0.00
8:53 am 08:53 Sunny 79 26.1 72 22.2 79 79 S 13 20 29.89 1012 10 16 0.00 0.00
9:53 am 09:53 Sunny 83 28.3 71 21.7 67 67 SSW 5 7 29.86 1011 10 16 0.00 0.00
10:53 am 10:53 Sunny 87 30.6 73 22.8 63 63 S 13 20 29.86 1011 10 16 0.00 0.00
11:53 am 11:53 Sunny 87 30.6 73 22.8 63 63 S 12 19 29.88 1012 10 16 0.00 0.00
12:53 pm 12:53 Sunny 88 31.1 74 23.3 63 63 SSE 12 19 29.87 1011 10 16 0.00 0.00
1:53 pm 13:53 Sunny 90 32.2 74 23.3 59 59 SE 8 13 29.85 1011 10 16 0.00 0.00
2:53 pm 14:53 Sunny 92 33.3 75 23.9 58 58 S 13 20 29.83 1010 10 16 0.00 0.00
3:53 pm 15:53 Sunny 90 32.2 76 24.4 63 63 SE 13 20 29.84 1010 10 16 0.00 0.00
4:53 pm 16:53 Sunny 91 32.8 75 23.9 59 59 S 12 19 29.83 1010 10 16 0.00 0.00
5:53 pm 17:53 Sunny 91 32.8 76 24.4 61 61 S 16 26 29.82 1010 10 16 0.00 0.00
6:53 pm 18:53 Sunny 91 32.8 77 25 64 64 S 15 24 29.80 1009 10 16 0.00 0.00
7:53 pm 19:53 Sunny 88 31.1 78 25.6 73 73 S 12 19 29.80 1009 10 16 0.00 0.00
8:53 pm 20:53 Sunny 86 30 78 25.6 77 77 S 12 19 29.79 1009 10 16 0.00 0.00
9:53 pm 21:53 Clear 84 28.9 78 25.6 82 82 S 10 17 29.80 1009 10 16 0.00 0.00
10:53 pm 22:53 Clear 82 27.8 77 25 85 85 SSE 9 15 29.81 1010 10 16 0.00 0.00
11:53 pm 23:53 Clear 82 27.8 76 24.4 82 82 S 8 13 29.82 1010 10 16 0.00 0.00

Powered by AerisWeather